Location: Unspecified
(0.0000°N, 0.0000°E)
Time: 20:17:03
(UTC+00:00)

Picosat 6 - Visible Passes

Search period start: 15 May 2026 00:00
Search period end: 25 May 2026 00:00
Orbit: 713 x 757 km, 100.2° (Epoch: 14 May)

Date Brightness Start Highest point End Pass type
(mag) Time Alt. Az. Time Alt. Az. Time Alt. Az.
15 May ? 18:40:23 10° SSW 18:44:43 32° WSW 18:49:04 10° NW visible
16 May ? 05:28:54 10° NE 05:33:09 29° ESE 05:37:21 10° SSE visible
17 May ? 18:47:32 10° SSW 18:51:41 28° WSW 18:55:51 10° NW visible
19 May ? 18:54:44 10° SSW 18:58:38 24° WSW 19:02:35 10° NW visible
21 May ? 19:01:58 10° SSW 19:05:36 21° WSW 19:09:15 10° NW visible
22 May ? 18:15:13 10° SSE 18:20:07 82° WSW 18:25:05 10° NNW visible
23 May ? 05:06:56 10° E 05:08:34 12° ESE 05:10:13 10° SE visible
23 May ? 19:09:16 10° SSW 19:12:34 18° WSW 19:15:53 10° WNW visible
24 May ? 18:22:12 10° S 18:27:05 71° WSW 18:32:01 10° NNW visible
